Location: Moscow
(55.7500°N, 37.5830°E)
Time: 11:44:35
(UTC+03:00)

Explorer 7 - Pass Details

Date: 07 December 2021
Orbit: 483 x 674 km, 50.3° (Epoch: 19 January)

Event Time Altitude Azimuth Distance (km) Brightness Sun altitude
Rises 05:09:29 0° 210° (SSW) 2,855 - -28.5°
Reaches altitude 10° 05:12:26 10° 191° (SSW) 1,913 - -28.1°
Exits shadow 05:14:43 17° 160° (SSE) 1,475 9.1 -27.8°
Maximum altitude 05:15:21 18° 149° (SSE) 1,445 9.2 -27.7°
Drops below altitude 10° 05:18:10 10° 107° (ESE) 1,836 10.4 -27.3°
Sets 05:20:54 0° 88° (E) 2,692 11.7 -26.9°
